Weather History for New Ulm, MN

Change the Weather History Date:

Friday, December 27, 2013

  Actual Average Record
Temperature  
Mean Temperature 28 °F -  
Max Temperature 37 °F 25 °F 48 °F (1959)
Min Temperature 19 °F 8 °F -25 °F (1950)
Degree Days  
Heating Degree Days 37    
Moisture  
Dew Point 27 °F    
Average Humidity 89    
Maximum Humidity 100    
Minimum Humidity 70    
Precipitation  
Precipitation 0.00 in - - ()
Sea Level Pressure  
Sea Level Pressure 30.02 in    
Wind  
Wind Speed 8 mph (SW)    
Max Wind Speed 15 mph    
Max Gust Speed 18 mph    
Visibility 10 miles    
Events      
Averages and records for this station are not official NWS values.
T = Trace of Precipitation, MM = Missing Value Source: NWS Daily Summary

Daily Weather History Graph

Daily Weather History Graph

Search for Another Location

Airport:

Trip Planner

Search our weather history database for the weather conditions in past years. The results will help you decide how hot, cold, wet, or windy it might be!

Date:

Astronomy

Dec. 27, 2013 Rise Set
Actual Time 7:53 AM CST 4:45 PM CST
Civil Twilight 7:19 AM CST 5:18 PM CST
Nautical Twilight 6:43 AM CST 5:55 PM CST
Astronomical Twilight 6:07 AM CST 6:30 PM CST
Moon 2:18 AM CST 1:03 PM CST
Length of Visible Light 9h 58m
Length of Day
8h 52m
Waning Crescent, 28% of the Moon is Illuminated
Dec 27
Waning Crescent
Jan 1
New
Jan 7
First Quarter
Jan 15
Full
Jan 23
Last Quarter

Hourly Weather History & Observations

Time (CST) Temp. Windchill Dew Point Humidity Pressure Visibility Wind Dir Wind Speed Gust Speed Precip Events Conditions
12:12 AM 28.4 °F 22.2 °F 28.4 °F 100% 30.15 in 10.0 mi West 5.8 mph - N/A   Overcast
12:33 AM 28.4 °F 23.3 °F 28.4 °F 100% 30.15 in 10.0 mi WSW 4.6 mph - N/A   Overcast
12:53 AM 28.4 °F 24.6 °F 28.4 °F 100% 30.15 in 10.0 mi West 3.5 mph - N/A   Overcast
1:12 AM 28.4 °F 24.6 °F 28.4 °F 100% 30.14 in 10.0 mi SW 3.5 mph - N/A   Overcast
1:33 AM 28.4 °F 23.3 °F 28.4 °F 100% 30.15 in 10.0 mi WSW 4.6 mph - N/A   Overcast
1:53 AM 28.4 °F 23.3 °F 26.6 °F 93% 30.13 in 10.0 mi SW 4.6 mph - N/A   Overcast
2:12 AM 28.4 °F 22.2 °F 26.6 °F 93% 30.14 in 10.0 mi SSW 5.8 mph - N/A   Overcast
2:33 AM 28.4 °F 22.2 °F 26.6 °F 93% 30.13 in 10.0 mi SW 5.8 mph - N/A   Overcast
2:53 AM 28.4 °F 22.2 °F 26.6 °F 93% 30.13 in 10.0 mi SW 5.8 mph - N/A   Overcast
3:12 AM 28.4 °F 22.2 °F 26.6 °F 93% 30.13 in 10.0 mi SW 5.8 mph - N/A   Overcast
3:33 AM 26.6 °F 21.2 °F 24.8 °F 93% 30.13 in 10.0 mi SW 4.6 mph - N/A   Scattered Clouds
3:53 AM 26.6 °F 19.1 °F 26.6 °F 100% 30.12 in 10.0 mi SSW 6.9 mph - N/A   Clear
4:12 AM 26.6 °F 19.1 °F 24.8 °F 93% 30.11 in 10.0 mi SSW 6.9 mph - N/A   Clear
4:33 AM 24.8 °F 16.1 °F 23.0 °F 93% 30.11 in 10.0 mi SSW 8.1 mph - N/A   Clear
4:53 AM 24.8 °F 16.9 °F 21.2 °F 86% 30.10 in 10.0 mi SSW 6.9 mph - N/A   Clear
5:12 AM 23.0 °F 15.8 °F 21.2 °F 93% 30.10 in 10.0 mi SSW 5.8 mph - N/A   Clear
5:33 AM 21.2 °F 10.9 °F 21.2 °F 100% 30.10 in 10.0 mi South 9.2 mph - N/A   Clear
5:53 AM 21.2 °F 10.9 °F 19.4 °F 93% 30.09 in 10.0 mi SSW 9.2 mph - N/A   Clear
6:12 AM 19.4 °F 8.6 °F 17.6 °F 93% 30.09 in 10.0 mi South 9.2 mph - N/A   Clear
6:33 AM 19.4 °F 8.6 °F 17.6 °F 93% 30.08 in 10.0 mi South 9.2 mph - N/A   Clear
6:53 AM 19.4 °F 7.9 °F 19.4 °F 100% 30.06 in 10.0 mi South 10.4 mph - N/A   Clear
7:12 AM 21.2 °F 8.9 °F 19.4 °F 93% 30.05 in 10.0 mi South 12.7 mph - N/A   Clear
7:33 AM 19.4 °F 7.2 °F 19.4 °F 100% 30.04 in 10.0 mi South 11.5 mph - N/A   Clear
7:53 AM 19.4 °F 7.2 °F 17.6 °F 93% 30.03 in 10.0 mi South 11.5 mph - N/A   Clear
8:12 AM 19.4 °F 6.6 °F 17.6 °F 93% 30.02 in 10.0 mi South 12.7 mph - N/A   Clear
8:33 AM 21.2 °F 10.1 °F 19.4 °F 93% 30.01 in 10.0 mi South 10.4 mph - N/A   Clear
8:53 AM 21.2 °F 10.9 °F 19.4 °F 93% 30.00 in 10.0 mi South 9.2 mph - N/A   Clear
9:12 AM 26.6 °F 16.8 °F 23.0 °F 86% 29.98 in 10.0 mi South 10.4 mph - N/A   Clear
9:33 AM 28.4 °F 21.2 °F 24.8 °F 86% 29.99 in 10.0 mi South 6.9 mph - N/A   Clear
9:53 AM 30.2 °F 21.9 °F 24.8 °F 80% 29.99 in 10.0 mi SSW 9.2 mph - N/A   Clear
10:12 AM 32.0 °F 23.0 °F 26.6 °F 80% 29.98 in 10.0 mi SSW 11.5 mph - N/A   Clear
10:33 AM 32.0 °F 22.5 °F 26.6 °F 80% 29.97 in 10.0 mi SSW 12.7 mph - N/A   Scattered Clouds
10:53 AM 33.8 °F 23.9 °F 28.4 °F 81% 29.96 in 10.0 mi SSW 15.0 mph 18.4 mph N/A   Mostly Cloudy
11:12 AM 35.6 °F 26.6 °F 28.4 °F 75% 29.95 in 10.0 mi SW 13.8 mph - N/A   Scattered Clouds
11:33 AM 35.6 °F 26.6 °F 28.4 °F 75% 29.95 in 10.0 mi SW 13.8 mph - N/A   Scattered Clouds
11:53 AM 35.6 °F 26.6 °F 28.4 °F 75% 29.93 in 10.0 mi SW 13.8 mph - N/A   Scattered Clouds
12:12 PM 35.6 °F 26.6 °F 28.4 °F 75% 29.92 in 10.0 mi SW 13.8 mph - N/A   Clear
12:33 PM 37.4 °F 30.8 °F 28.4 °F 70% 29.93 in 10.0 mi WSW 9.2 mph - N/A   Clear
12:53 PM 37.4 °F 28.9 °F 30.2 °F 75% 29.93 in 10.0 mi West 13.8 mph - N/A   Clear
1:12 PM 35.6 °F 26.2 °F 30.2 °F 81% 29.94 in 10.0 mi West 15.0 mph - N/A   Clear
1:33 PM 35.6 °F 27.1 °F 30.2 °F 81% 29.94 in 10.0 mi West 12.7 mph - N/A   Clear
1:53 PM 35.6 °F 26.2 °F 30.2 °F 81% 29.94 in 10.0 mi West 15.0 mph - N/A   Clear
2:12 PM 35.6 °F 26.6 °F 30.2 °F 81% 29.94 in 10.0 mi West 13.8 mph - N/A   Clear
2:33 PM 35.6 °F 27.1 °F 30.2 °F 81% 29.95 in 10.0 mi West 12.7 mph - N/A   Clear
2:53 PM 35.6 °F 27.5 °F 30.2 °F 81% 29.95 in 10.0 mi West 11.5 mph - N/A   Clear
3:12 PM 35.6 °F 27.5 °F 30.2 °F 81% 29.95 in 10.0 mi West 11.5 mph - N/A   Clear
3:33 PM 37.4 °F 28.9 °F 30.2 °F 75% 29.96 in 10.0 mi West 13.8 mph - N/A   Clear
3:53 PM 37.4 °F 29.8 °F 32.0 °F 81% 29.96 in 10.0 mi West 11.5 mph - N/A   Clear
4:12 PM 35.6 °F 27.5 °F 32.0 °F 87% 29.97 in 10.0 mi West 11.5 mph - N/A   Clear
4:33 PM 35.6 °F 28.0 °F 32.0 °F 87% 29.97 in 10.0 mi West 10.4 mph - N/A   Clear
4:53 PM 35.6 °F 28.0 °F 32.0 °F 87% 29.98 in 10.0 mi West 10.4 mph - N/A   Clear
5:12 PM 35.6 °F 28.0 °F 32.0 °F 87% 29.98 in 10.0 mi West 10.4 mph - N/A   Clear
5:33 PM 35.6 °F 27.5 °F 32.0 °F 87% 29.98 in 10.0 mi West 11.5 mph - N/A   Clear
5:53 PM 35.6 °F 27.5 °F 32.0 °F 87% 29.99 in 10.0 mi West 11.5 mph - N/A   Clear
6:12 PM 35.6 °F 27.5 °F 32.0 °F 87% 29.99 in 10.0 mi West 11.5 mph - N/A   Clear
6:33 PM 35.6 °F 27.5 °F 32.0 °F 87% 29.99 in 10.0 mi West 11.5 mph - N/A   Clear
6:53 PM 35.6 °F 27.5 °F 32.0 °F 87% 29.99 in 10.0 mi West 11.5 mph - N/A   Clear
7:12 PM 33.8 °F 25.3 °F 30.2 °F 87% 30.00 in 10.0 mi West 11.5 mph - N/A   Clear
7:33 PM 33.8 °F 24.8 °F 30.2 °F 87% 30.00 in 10.0 mi West 12.7 mph - N/A   Clear
7:53 PM 32.0 °F 24.2 °F 30.2 °F 93% 30.01 in 10.0 mi West 9.2 mph - N/A   Clear
8:13 PM 30.2 °F 23.4 °F 30.2 °F 100% 30.01 in 10.0 mi WSW 6.9 mph - N/A   Clear
8:32 PM 30.2 °F - 28.4 °F 93% 30.01 in 10.0 mi Calm Calm - N/A   Clear
8:53 PM 30.2 °F 24.3 °F 28.4 °F 93% 30.01 in 10.0 mi WSW 5.8 mph - N/A   Clear
9:13 PM 28.4 °F 23.3 °F 28.4 °F 100% 30.01 in 10.0 mi West 4.6 mph - N/A   Clear
9:32 PM 30.2 °F 21.9 °F 28.4 °F 93% 30.00 in 10.0 mi West 9.2 mph - N/A   Clear
9:53 PM 30.2 °F 21.9 °F 28.4 °F 93% 30.00 in 10.0 mi WNW 9.2 mph - N/A   Clear
10:13 PM 28.4 °F 24.6 °F 26.6 °F 93% 30.00 in 10.0 mi West 3.5 mph - N/A   Clear
10:32 PM 28.4 °F 24.6 °F 26.6 °F 93% 30.00 in 10.0 mi WSW 3.5 mph - N/A   Clear
10:53 PM 28.4 °F - 26.6 °F 93% 29.99 in 10.0 mi Calm Calm - N/A   Clear
11:13 PM 28.4 °F - 28.4 °F 100% 29.99 in 10.0 mi Calm Calm - N/A   Clear
11:32 PM 26.6 °F - 26.6 °F 100% 29.99 in 10.0 mi Calm Calm - N/A   Clear
11:53 PM 26.6 °F 22.6 °F 26.6 °F 100% 29.98 in 10.0 mi SSE 3.5 mph - N/A   Clear